{"data":{"norad_id":59436,"intl_designator":"2024-065R","name":"STARLINK-31700","alt_names":[],"object_type":"PAYLOAD","status":"ACTIVE","operator":null,"country":"US","launch_date":"2024-04-07","launch_site_code":"AFWTR","launch_vehicle":null,"mission":null,"orbit_class":"UNKNOWN","rcs_meters":null,"size_class":null,"mass_kg":null,"dimensions":null,"purposes":["comms"],"wikipedia_slug":null,"has_3d_model":false,"image_url":null,"decayed_at":null,"tle_current":{"epoch":"2026-09-21T21:29:03.965856Z","epoch_age_seconds":44616,"freshness":"FRESH","line1":"1 59436U 24065R   26264.89518479  .00000783  00000+0  34316-4 0  9993","line2":"2 59436  53.1601  87.1766 0001059  86.2030 273.9094 15.34390116139015","mean_motion":15.34390116,"eccentricity":0.0001059,"inclination_deg":53.1601,"raan_deg":87.1766,"arg_perigee_deg":86.203,"mean_anomaly_deg":273.9094,"bstar":3.4316e-5,"rev_number":13901,"period_min":93.848362615495,"perigee_km":462.00816960325,"apogee_km":463.45706578828,"semimajor_km":6840.8696176958,"source":"CELESTRAK","updated_at":"2026-09-22T09:00:48.941655Z"}}}